Lapse_Rate
3.6 3.1 3.4 4.3 3.4 3.2 3.3 2.9 2.8 2.2 2.4 1.6 1.9 2.0 2.6 2.6 2.7 2.8 3.6 3.9 4.0 4.9 3.5 2.8 3.1 3.5 2.9 3.3 3.5 3.6 4.0 3.7 3.1 3.7 3.6 1.9 1.6 1.1 1.1 1.2 1.6 2.2 3.2
4.2 3.6 3.4 3.8 3.1 2.8 2.6 2.7 3.1 2.3 2.7 1.7 1.4 2.2 2.2 2.0 2.9 3.0 3.7 3.9 4.4 4.6 4.0 3.4 3.6 3.9 3.8 3.2 3.9 3.8 3.7 3.5 3.1 3.8 3.1 3.7 2.6 2.1 1.4 1.3 1.9 2.2 2.9
2.6 2.6 3.2 3.6 3.6 3.2 2.0 3.3 2.7 2.6 2.9 2.0 2.2 2.5 2.6 2.5 2.5 2.5 2.3 3.2 4.1 4.5 4.4 4.2 3.7 3.7 3.6 3.8 4.0 3.5 3.5 4.0 3.5 3.7 3.6 3.7 3.5 1.9 1.8 1.8 1.5 2.1 2.0
3.1 2.1 2.1 2.0 4.2 3.0 1.8 2.2 2.4 2.1 2.9 2.5 2.8 3.2 3.0 2.3 2.0 2.0 1.8 2.9 3.4 3.1 3.9 3.7 3.5 3.2 3.3 3.5 3.4 3.0 3.0 3.3 4.2 3.5 3.5 3.1 2.9 3.1 3.6 2.2 2.1 1.6 2.1
3.2 2.9 2.5 3.0 4.0 4.3 2.5 3.5 1.6 2.0 3.1 2.9 2.8 2.9 3.0 2.5 2.0 1.7 3.0 2.8 2.5 3.4 3.7 3.2 3.2 3.1 2.8 2.8 3.2 3.2 3.3 3.0 3.6 3.7 3.6 3.6 2.9 3.1 3.7 4.2 4.5 3.0 1.6
4.2 3.9 3.3 3.4 3.9 3.9 4.4 4.0 2.5 2.4 2.5 2.7 2.8 2.9 3.0 2.9 2.7 2.5 2.7 2.9 2.5 2.8 3.2 3.8 3.1 2.8 2.8 2.9 3.0 2.8 3.1 2.8 3.2 3.0 3.1 3.1 3.4 3.1 3.8 4.2 4.2 2.7 2.8
5.6 4.7 3.4 4.1 4.7 4.4 4.2 3.7 2.9 3.3 1.3 2.8 3.2 3.2 3.4 3.1 3.1 2.7 2.6 2.4 2.5 3.0 3.3 3.4 3.0 2.5 2.2 2.8 2.6 2.5 2.3 2.3 2.8 2.9 2.6 2.3 2.4 2.1 2.5 3.4 3.3 3.0 2.1
4.8 4.1 4.0 3.5 3.3 3.7 3.7 3.5 2.7 2.9 2.3 2.4 3.3 3.4 3.3 2.3 2.7 2.9 2.5 2.7 3.0 3.3 3.0 2.6 2.3 2.6 2.2 1.9 1.9 2.1 2.2 2.1 2.1 2.5 2.4 2.3 2.1 1.9 2.7 2.9 2.6 3.1 2.1
4.9 4.2 3.9 3.2 2.8 3.0 2.9 3.2 2.5 2.5 2.5 2.6 2.7 3.1 3.0 3.2 3.2 3.0 2.8 2.8 2.8 2.9 2.6 2.4 2.1 1.6 1.4 1.0 0.9 1.1 1.9 1.9 1.9 1.9 2.1 2.2 1.9 1.9 2.1 2.4 2.1 2.8 3.2
4.5 5.4 3.7 3.1 2.7 2.7 2.6 2.9 2.5 2.5 2.2 2.6 2.5 3.2 3.4 3.3 3.1 2.3 2.2 2.3 1.9 2.0 1.8 1.8 1.9 1.4 1.3 1.1 1.1 1.1 1.1 1.1 1.3 2.1 2.9 2.9 2.6 2.7 2.4 2.6 2.3 2.1 2.4
3.1 3.9 3.5 2.7 2.6 2.5 2.3 2.2 2.0 2.2 2.6 2.7 2.6 3.0 2.8 2.5 1.7 1.9 1.4 1.7 1.5 1.1 1.5 1.4 1.5 2.1 2.6 1.8 1.6 1.9 2.2 2.9 2.9 3.4 3.7 3.5 3.4 3.4 3.3 3.0 2.9 2.7 2.5
2.2 2.6 2.7 1.5 1.5 1.8 1.9 2.0 2.3 3.0 3.2 2.5 2.4 2.7 2.3 1.3 0.8 1.3 0.6 0.1 -0.0 0.1 0.1 0.2 0.6 1.0 1.8 1.8 2.4 3.1 3.1 3.3 3.7 3.6 3.5 4.1 4.5 3.3 2.7 2.7 3.4 2.9 2.8
1.9 1.8 1.4 1.3 1.4 1.6 1.8 1.9 2.3 2.9 3.0 2.4 2.5 2.7 2.1 2.0 1.9 0.8 0.1 -0.7 -0.9 -0.9 -0.3 0.1 1.2 1.6 2.0 2.4 2.0 1.8 2.3 2.7 3.4 3.6 4.0 4.0 3.9 3.8 2.7 2.3 2.5 2.3 3.0
2.0 1.9 1.4 1.6 1.3 1.5 1.6 1.8 1.9 2.5 2.3 2.3 2.4 2.5 2.1 1.8 1.4 0.7 -0.4 -1.6 -1.7 -1.1 -0.4 0.2 0.7 1.4 1.9 2.4 2.8 3.0 3.0 3.2 3.5 3.6 3.9 3.9 3.7 3.7 3.0 3.1 2.6 2.2 2.2
1.8 2.3 2.0 1.5 1.6 1.1 1.4 1.9 2.3 2.1 2.1 1.8 2.5 2.7 2.2 1.6 1.4 0.5 -1.1 -1.4 -1.1 -0.4 -0.4 0.1 1.1 2.2 2.9 3.7 2.7 3.3 3.5 3.7 3.7 3.7 4.2 3.8 3.9 4.9 3.5 3.5 3.4 2.7 2.0
2.5 2.5 2.4 1.6 1.5 1.8 1.3 2.3 2.5 2.4 3.0 3.0 3.2 2.3 1.3 -0.1 1.4 0.8 -0.6 -1.4 -1.2 -0.4 -0.3 -0.1 0.3 1.1 3.7 3.4 3.8 3.5 2.7 2.8 3.2 3.5 3.8 3.7 5.3 5.5 5.8 6.0 5.7 3.8 3.0
5.0 4.3 3.7 3.2 3.9 3.7 2.6 2.5 1.1 0.1 0.3 1.6 2.1 1.5 1.0 -0.1 -0.4 1.4 0.4 -0.4 -1.2 -1.2 -0.1 0.7 1.4 1.7 2.4 3.2 4.3 4.5 2.4 2.6 2.3 2.5 3.1 3.5 5.5 4.1 3.5 3.8 3.8 3.0 3.8
1.8 2.2 2.3 2.8 2.4 2.8 0.9 -0.1 -0.0 0.9 1.0 2.4 3.4 3.5 2.9 2.5 2.8 2.4 1.5 0.3 -0.4 -0.5 -0.1 0.6 1.7 2.1 2.4 3.2 4.0 5.0 2.7 2.5 2.5 2.2 2.5 2.4 3.0 2.8 2.6 2.8 2.8 2.2 2.0
-0.1 -1.1 -0.9 -0.1 -0.6 -1.4 -0.9 -0.2 0.1 0.8 2.6 1.9 0.3 3.5 3.8 3.1 2.9 3.4 3.5 1.9 1.1 0.9 0.6 1.2 1.7 1.9 2.4 2.4 3.0 3.6 2.5 2.5 2.4 2.0 1.9 2.3 2.3 2.7 4.0 2.7 3.1 1.8 1.2
-2.2 -2.4 -2.5 -2.4 -1.1 -1.3 0.1 0.2 0.6 1.8 0.4 0.9 1.1 2.4 2.0 1.9 3.0 2.2 2.7 2.8 1.6 2.0 1.6 1.8 1.4 2.0 2.7 2.1 1.7 2.1 1.4 1.8 1.0 0.6 1.4 2.5 2.2 2.4 2.9 2.0 2.2 1.8 1.0
-1.3 -2.3 -2.6 -1.6 -0.7 -0.0 1.6 0.9 1.2 1.9 0.3 1.1 1.8 3.4 2.6 1.3 1.1 0.4 3.3 4.3 2.1 1.7 1.7 2.2 2.1 2.1 2.4 2.7 1.0 1.1 1.4 1.6 0.7 -0.0 0.2 0.4 1.6 1.2 1.7 2.4 1.2 1.5 1.0
0.1 -0.2 0.1 1.1 1.1 1.3 1.9 2.6 2.0 1.8 3.0 3.4 2.9 3.2 2.6 4.7 4.9 4.7 1.7 4.5 2.8 2.4 1.8 2.1 2.3 1.7 1.9 1.3 1.3 0.9 1.3 1.6 0.9 0.9 0.3 0.1 0.9 0.7 1.0 1.6 1.9 1.7 2.0
-0.4 -0.5 0.3 1.9 0.9 0.9 1.2 1.2 2.1 2.2 3.0 4.2 4.3 4.5 4.5 4.9 4.8 4.8 4.7 3.5 2.6 2.2 1.9 1.8 1.9 2.0 1.9 1.6 0.9 0.8 0.8 0.9 0.4 0.7 0.7 0.8 0.5 0.4 0.6 1.7 2.2 2.3 0.6
-0.1 -0.3 0.6 0.9 0.1 -0.0 0.5 0.7 1.9 2.7 4.1 4.5 4.5 4.5 4.1 4.2 3.8 3.0 2.4 2.4 2.0 1.6 2.0 1.9 1.9 1.9 1.4 1.2 0.8 0.4 -0.1 0.4 0.6 1.5 0.8 0.9 1.5 1.6 1.4 1.2 1.2 0.9 0.6
1.4 1.7 1.8 2.2 2.2 2.0 2.9 3.0 3.3 4.0 4.8 4.2 4.1 4.1 3.4 3.4 3.2 3.2 2.7 2.4 2.2 2.2 2.2 2.2 2.3 2.2 1.8 2.2 0.9 0.4 0.1 -0.0 0.4 0.6 0.4 1.1 1.3 1.7 1.4 1.2 1.0 0.7 0.3
2.1 2.1 2.2 2.7 3.2 4.0 4.7 4.1 3.7 3.9 4.1 4.1 3.9 3.6 3.5 3.2 3.2 2.9 2.8 1.1 0.9 0.1 -0.4 -0.0 1.6 1.4 0.5 -0.7 -2.0 -3.0 -2.7 -1.7 -1.9 0.5 0.7 1.0 1.2 1.1 1.2 0.9 0.6 0.5 1.7
Wind_Speed
4 7 11 13 11 9 10 10 8 7 5 2 3 2 3 3 3 4 7 8 8 9 6 3 3 1 3 3 3 2 2 1 1 1 1 3 2 2 3 2 1 3 6
4 6 9 10 13 15 12 9 9 10 7 3 3 2 3 2 1 2 3 5 4 3 2 4 2 1 1 1 2 3 1 2 2 2 1 2 2 2 3 3 3 4 2
9 6 8 11 12 12 11 13 11 11 9 8 2 2 2 2 1 1 1 2 2 2 1 1 3 2 2 2 2 2 3 2 1 1 2 1 2 1 2 3 3 4 3
10 9 9 9 14 12 8 8 10 10 10 8 6 5 4 4 3 3 1 2 2 5 4 5 4 4 2 3 2 2 0 2 2 1 1 2 2 2 2 3 3 4 5
16 15 14 15 13 12 11 7 7 7 7 8 7 5 3 3 1 2 2 0 2 1 5 5 5 4 3 4 4 4 3 1 2 1 1 1 1 1 1 3 2 2 4
18 16 12 11 11 8 11 9 8 8 6 6 7 7 7 5 3 3 3 2 2 2 3 5 5 4 4 3 2 2 2 1 3 2 2 2 2 1 1 1 2 3 3
15 16 13 14 15 13 12 10 13 12 7 6 5 6 6 6 6 5 4 4 2 1 2 3 3 3 3 3 3 4 4 3 2 1 1 1 1 1 1 1 2 2 2
17 20 19 14 14 14 13 11 10 8 7 6 6 5 6 4 4 4 3 3 3 4 4 5 4 4 4 3 4 3 3 4 4 5 4 2 2 1 0 2 2 1 2
16 18 17 14 13 13 14 14 12 7 8 8 6 5 5 5 5 4 4 3 4 3 5 5 5 3 3 4 3 3 3 3 3 3 3 2 1 2 0 1 2 3 1
8 10 13 14 12 13 12 11 11 12 9 8 7 6 6 5 5 5 5 5 5 4 6 5 5 4 4 3 3 2 3 3 1 0 3 2 1 3 3 2 1 0 2
8 9 10 12 12 12 12 12 12 11 10 10 8 7 6 7 6 6 6 7 6 7 6 6 4 4 3 2 3 3 2 2 3 2 2 3 2 2 2 3 3 2 1
10 9 9 12 12 13 12 12 11 11 12 11 11 10 9 8 8 9 9 8 7 6 7 7 7 6 4 4 4 3 2 4 4 2 3 1 2 2 2 1 2 2 2
8 8 7 11 13 13 12 11 10 11 10 10 9 9 10 9 9 8 7 7 7 7 7 7 6 7 6 6 5 6 5 3 4 3 4 3 2 1 1 1 1 1 2
10 11 11 12 12 12 11 12 11 11 9 8 8 10 12 13 11 8 7 7 7 8 7 6 6 5 5 5 4 4 4 2 2 1 2 3 4 4 3 1 1 1 2
9 13 14 12 10 10 11 11 12 11 10 10 10 11 10 7 8 8 9 7 6 6 7 6 4 3 4 3 5 4 4 4 2 2 2 3 6 7 6 2 2 0 1
11 13 12 9 11 13 13 4 6 6 3 3 4 5 6 5 7 7 8 9 7 6 6 6 7 6 3 7 10 6 4 4 1 2 2 2 4 3 5 2 2 3 2
4 5 8 7 5 4 7 7 10 11 11 10 9 7 4 3 6 5 6 6 8 7 7 5 5 6 4 6 7 7 4 2 2 3 3 4 3 5 3 1 4 6 4
5 7 6 7 8 7 11 14 13 11 10 8 8 5 6 4 4 5 6 5 4 6 6 6 5 3 4 6 6 5 2 2 1 3 5 6 6 5 4 2 1 2 4
4 6 6 7 9 16 16 16 10 10 7 10 6 11 7 6 7 4 8 4 2 2 4 5 6 5 4 6 7 4 1 2 3 2 4 4 5 7 8 3 1 4 4
5 6 8 5 9 11 13 15 10 6 7 6 13 18 12 13 13 13 4 6 4 5 4 5 6 6 5 6 7 6 3 3 2 4 5 6 6 8 9 5 3 2 4
5 4 6 8 6 4 3 5 3 6 7 3 7 14 19 20 18 18 13 8 6 5 5 5 3 5 5 5 7 8 4 3 2 2 4 4 4 6 7 6 4 5 4
5 5 5 6 5 6 5 4 6 3 3 4 5 11 8 6 10 17 12 9 7 6 5 4 2 2 3 6 6 8 9 6 3 4 3 5 6 7 8 6 8 8 5
4 2 4 7 7 6 5 7 4 0 6 4 5 7 9 10 7 8 11 6 5 4 4 3 3 3 3 4 8 10 12 9 4 4 6 6 7 8 6 9 11 5 3
3 4 5 7 6 6 7 5 6 6 3 4 3 2 7 7 6 5 5 5 4 4 3 4 4 3 3 5 4 4 4 7 6 5 3 3 6 8 7 5 4 2 3
5 6 6 7 7 5 5 5 4 4 4 3 3 1 1 2 3 3 3 3 3 4 4 3 3 2 4 4 4 5 4 5 4 3 1 2 2 4 4 4 4 4 4
3 6 6 7 5 5 4 2 1 3 3 5 3 2 0 3 1 2 1 1 2 2 5 1 2 2 8 9 10 7 8 6 11 2 3 3 3 4 4 4 5 4 6
Wind_Direction
226 203 183 172 159 166 184 189 164 171 165 149 162 179 217 198 231 243 256 246 262 232 213 208 223 129 169 197 196 204 204 272 223 288 37 81 47 336 295 301 325 247 223
184 172 184 168 174 178 188 185 182 171 185 182 180 173 175 199 184 162 216 205 224 242 217 202 206 118 286 332 243 193 201 226 186 127 72 10 347 293 276 302 248 253 232
185 164 179 183 180 186 187 192 188 176 189 192 148 86 72 63 88 242 250 235 217 223 217 142 128 134 157 200 229 222 195 212 354 122 144 89 231 327 303 288 259 250 226
189 168 176 184 191 194 192 178 188 181 190 177 185 178 169 178 209 195 171 260 309 344 114 121 97 86 69 67 52 36 197 147 166 77 101 80 139 169 323 307 289 266 255
185 185 183 193 195 185 195 188 164 184 186 181 194 186 165 200 104 114 142 224 332 145 101 103 98 83 68 60 59 40 36 25 112 107 114 89 112 152 143 261 302 295 252
194 188 187 188 198 188 192 184 179 202 203 192 197 178 186 177 150 144 154 172 176 98 105 102 92 81 73 46 47 77 58 127 115 120 127 149 156 229 176 261 272 252 294
191 188 183 189 200 190 187 180 173 204 201 208 197 188 185 175 179 169 163 166 142 120 124 93 85 70 71 59 54 83 55 39 63 79 106 87 98 123 158 157 256 279 315
188 189 190 183 184 186 181 178 186 184 170 188 193 190 171 176 177 176 161 169 161 144 139 116 108 94 72 64 60 55 50 66 56 64 65 58 33 53 175 194 162 306 325
187 189 184 180 174 177 178 182 182 180 173 180 176 180 164 166 175 163 153 153 136 131 126 124 122 97 83 85 79 80 71 66 44 57 68 80 346 2 277 256 206 168 209
157 182 176 176 174 176 174 176 182 182 176 167 165 177 184 176 161 142 141 135 125 121 131 140 140 125 110 95 82 51 44 77 35 80 89 86 82 20 9 35 92 231 156
172 175 176 176 170 168 171 178 179 175 173 167 168 170 168 162 150 145 147 152 148 148 150 157 151 149 136 112 101 116 91 136 97 89 57 58 77 65 26 8 20 38 95
172 162 170 165 166 174 176 180 187 188 187 182 179 175 161 160 160 169 167 162 158 158 160 161 163 167 169 165 141 126 108 121 132 116 116 123 96 70 18 33 38 13 355
135 145 166 176 183 182 181 185 190 197 195 186 175 167 171 167 173 167 161 163 162 164 166 160 169 175 181 174 165 160 161 127 150 157 161 182 132 29 7 30 39 2 346
153 170 191 194 190 184 186 187 187 191 186 182 183 180 175 181 174 166 170 165 171 165 174 184 178 183 183 181 169 165 152 142 148 171 174 182 203 193 175 154 114 70 33
173 190 206 198 186 186 192 199 198 189 177 180 185 190 187 171 167 168 165 165 171 176 171 168 183 182 190 192 171 162 143 145 165 199 263 277 248 207 195 180 258 131 86
200 205 212 202 195 196 199 138 50 46 5 242 196 178 188 204 184 175 174 164 160 160 163 177 163 175 201 175 168 161 160 151 109 185 263 298 331 199 207 225 356 231 204
327 279 259 269 350 92 129 136 105 83 75 54 21 28 5 244 195 193 171 188 171 155 165 159 152 181 200 184 174 157 133 132 185 246 266 263 199 172 184 340 0 341 333
349 282 227 172 159 124 97 103 96 90 93 62 40 352 77 47 314 286 215 203 178 158 154 160 167 153 189 200 194 184 154 123 237 239 284 262 253 215 197 197 325 336 307
277 276 263 185 145 132 133 124 122 126 120 121 83 274 228 200 182 220 271 245 179 207 155 156 161 171 207 210 199 173 250 279 281 275 298 291 229 226 197 183 283 326 319
343 14 32 61 109 124 138 130 145 172 110 207 180 232 227 213 192 168 186 228 195 193 160 158 169 192 209 208 192 174 176 257 267 288 293 306 235 214 194 192 203 301 279
34 44 70 81 95 83 74 99 35 340 6 90 226 252 246 221 189 159 165 228 199 173 170 161 162 195 201 218 200 180 190 224 219 258 294 283 288 209 217 203 202 228 208
18 18 77 82 52 24 24 45 49 65 352 310 1 1 4 153 140 148 134 207 162 160 148 145 179 228 240 238 228 210 210 192 193 242 258 274 273 252 258 256 244 241 253
33 16 59 60 39 34 33 88 124 247 18 28 55 66 65 78 72 124 173 164 147 147 147 155 191 243 239 238 223 219 218 208 198 199 235 257 278 278 283 278 277 265 214
52 53 79 79 68 52 51 61 28 5 63 82 4 328 119 144 153 144 146 128 150 140 162 183 211 234 257 259 236 223 216 226 222 229 252 272 277 272 270 305 304 275 240
49 57 62 70 73 56 30 348 359 5 17 13 346 17 93 119 133 144 152 151 189 171 174 195 200 234 279 272 246 198 204 197 204 114 22 315 302 300 307 305 293 288 277
72 64 61 68 61 42 15 3 11 17 34 27 351 347 111 119 119 162 174 156 194 181 242 229 190 258 248 282 291 236 225 182 145 143 209 234 235 266 290 297 298 288 278